Regional Weather Roundup
Issued by NWS

Home | Current Version | Previous Version | Text Only | Print | Product List | Glossary Off
Versions: 1 2 3 4 5 6 7 8 9 10 11 12 13 14 15 16 17 18 19 20 21 22 23 24 25 26 27 28 29 30 31 32 33 34 35 36 37 38 39 40 41 42 43 44 45 46 47 48 49 50

713
ASUS44 KJAN 291603
RWRMS

MISSISSIPPI HOURLY WEATHER ROUNDUP
NATIONAL WEATHER SERVICE JACKSON MS
1100 AM CDT TUE JUL 29 2014

NOTE: "FAIR: INDICATES FEW OR NO CLOUDS BELOW 12,000 FEET WITH NO
SIGNIFICANT WEATHER AND/OR OBSTRUCTIONS TO VISIBILITY.

MSZ001>002-007>008-010>013-018>021-025>028-034>036-291700-
NORTHWEST MISSISSIPPI

CITY           SKY/WX    TMP DP  RH WIND       PRES   REMARKS
CLARKSDALE     FAIR      77  59  53 N13       30.15R
CLEVELAND      FAIR      78  66  67 N9        30.12S
GREENWOOD      MOSUNNY   80  64  58 N10       30.12R
GREENVILLE     SUNNY     79  65  62 NE12      30.12R
GRENADA        FAIR      79  61  53 N7        30.13S
OLIVE BRANCH   MOSUNNY   73  57  56 N8        30.16R
OXFORD         FAIR      73  57  56 NE5       30.16R
TUNICA         SUNNY     77  55  47 N9        30.15S
$$

MSZ003>006-009-014>017-022>024-029>033-037>039-291700-
NORTHEAST MISSISSIPPI

CITY           SKY/WX    TMP DP  RH WIND       PRES   REMARKS
BELMONT        FAIR      73  58  60 N6        30.13R
COLUMBUS AFB   SUNNY     78  62  57 N12       30.11R
CORINTH        FAIR      72  54  53 N8        30.14S
GOLDN TRIANGLE PTSUNNY   79  64  61 N7        30.11S
STARKVILLE     FAIR      77  63  61 N6        30.11S
TUPELO         MOSUNNY   76  57  51 NE15      30.12R
$$

MSZ040-058-291700-
CENTRAL MISSISSIPPI

CITY           SKY/WX    TMP DP  RH WIND       PRES   REMARKS
JACKSON INTL   MOSUNNY   84  65  52 NW8       30.10S
JACKSON HAWKNS SUNNY     84  63  49 VRB3      30.10S
MERIDIAN KEY   SUNNY     83  61  47 NW9       30.08S
MERIDIAN NAS   MOSUNNY   83  63  50 VRB6      30.08S
RAYMOND        FAIR      82  77  83 N6        30.10S HX  91
VICKSBURG      SUNNY     85  66  53 NW7       30.10S
$$

MSZ059>079-291700-
SOUTH MISSISSIPPI

CITY           SKY/WX    TMP DP  RH WIND       PRES   REMARKS
BROOKHAVEN     FAIR      81  64  57 N5        30.13R
COLUMBIA       FAIR      82  66  57 NE8       30.09R
HATTIESBURG    SUNNY     83  64  52 VRB6      30.09R
MCCOMB         SUNNY     82  62  50 NE5       30.11R
NATCHEZ        SUNNY     82  66  57 N8        30.12R
PINE BELT      SUNNY     84  63  48 NE6       30.11R
$$

MSZ080>082-291700-
COASTAL MISSISSIPPI

CITY           SKY/WX    TMP DP  RH WIND       PRES   REMARKS
BAY ST LOUIS   MOSUNNY  N/A N/A N/A NE6       30.08R
BILOXI         PTSUNNY   83  66  56 VRB6      30.07R
PASCAGOULA     MOSUNNY   85  66  53 N10       30.06R
GULFPORT       PTSUNNY   88  65  46 N6        30.06R HX  90
$$



USA.gov is the U.S. government's official web portal to all federal, state and local government web resources and services.